Weather History for Bentonville, AR

Change the Weather History Date:

Wednesday, January 22, 2014

  Actual Average Record
Temperature  
Mean Temperature 30 °F -  
Max Temperature 42 °F 44 °F 72 °F (1967)
Min Temperature 17 °F 24 °F -3 °F (1959)
Degree Days  
Heating Degree Days 36    
Moisture  
Dew Point 12 °F    
Average Humidity 49    
Maximum Humidity 68    
Minimum Humidity 36    
Precipitation  
Precipitation 0.00 in - - ()
Sea Level Pressure  
Sea Level Pressure 30.14 in    
Wind  
Wind Speed 4 mph (NNW)    
Max Wind Speed 17 mph    
Max Gust Speed 22 mph    
Visibility 10 miles    
Events      
Averages and records for this station are not official NWS values.
T = Trace of Precipitation, MM = Missing Value Source: NWS Daily Summary

Daily Weather History Graph

Daily Weather History Graph

Search for Another Location

Airport:

Trip Planner

Search our weather history database for the weather conditions in past years. The results will help you decide how hot, cold, wet, or windy it might be!

Date:

Astronomy

Jan. 22, 2014 Rise Set
Actual Time 7:24 AM CST 5:32 PM CST
Civil Twilight 6:57 AM CST 6:00 PM CST
Nautical Twilight 6:25 AM CST 6:31 PM CST
Astronomical Twilight 5:55 AM CST 7:02 PM CST
Moon 11:53 PM CST 10:38 AM CST
Length of Visible Light 11h 03m
Length of Day
10h 07m
Waning Gibbous, 65% of the Moon is Illuminated
Jan 22
Waning Gibbous
Jan 23
Last Quarter
Jan 30
New
Feb 6
First Quarter
Feb 14
Full

Hourly Weather History & Observations

Time (CST) Temp. Windchill Dew Point Humidity Pressure Visibility Wind Dir Wind Speed Gust Speed Precip Events Conditions
12:15 AM 19.4 °F 14.3 °F 6.8 °F 58% 30.12 in 10.0 mi SSE 3.5 mph - N/A   Clear
12:35 AM 19.4 °F - 6.8 °F 58% 30.11 in 10.0 mi Calm Calm - N/A   Clear
12:55 AM 19.4 °F - 5.0 °F 54% 30.11 in 10.0 mi Calm Calm - N/A   Clear
1:15 AM 19.4 °F - 6.8 °F 58% 30.10 in 10.0 mi Calm Calm - N/A   Clear
1:35 AM 17.6 °F 12.3 °F 6.8 °F 63% 30.10 in 10.0 mi South 3.5 mph - N/A   Clear
1:55 AM 19.4 °F 14.3 °F 6.8 °F 58% 30.09 in 10.0 mi South 3.5 mph - N/A   Clear
2:15 AM 19.4 °F 14.3 °F 6.8 °F 58% 30.09 in 10.0 mi South 3.5 mph - N/A   Clear
2:35 AM 19.4 °F 14.3 °F 6.8 °F 58% 30.09 in 10.0 mi South 3.5 mph - N/A   Clear
2:55 AM 19.4 °F 11.5 °F 6.8 °F 58% 30.08 in 10.0 mi South 5.8 mph - N/A   Clear
3:15 AM 19.4 °F 12.8 °F 6.8 °F 58% 30.08 in 10.0 mi South 4.6 mph - N/A   Clear
3:35 AM 17.6 °F - 6.8 °F 63% 30.09 in 10.0 mi Calm Calm - N/A   Clear
3:55 AM 19.4 °F - 6.8 °F 58% 30.08 in 10.0 mi Calm Calm - N/A   Clear
4:15 AM 19.4 °F - 6.8 °F 58% 30.07 in 10.0 mi Calm Calm - N/A   Clear
4:35 AM 19.4 °F - 8.6 °F 63% 30.07 in 10.0 mi Calm Calm - N/A   Clear
4:55 AM 19.4 °F - 6.8 °F 58% 30.07 in 10.0 mi Calm Calm - N/A   Clear
5:15 AM 19.4 °F - 6.8 °F 58% 30.08 in 10.0 mi Calm Calm - N/A   Clear
5:35 AM 19.4 °F - 6.8 °F 58% 30.08 in 10.0 mi Calm Calm - N/A   Clear
5:55 AM 19.4 °F - 8.6 °F 63% 30.09 in 10.0 mi Calm Calm - N/A   Clear
6:15 AM 19.4 °F - 6.8 °F 58% 30.09 in 10.0 mi Calm Calm - N/A   Clear
6:35 AM 19.4 °F 14.3 °F 6.8 °F 58% 30.09 in 10.0 mi SW 3.5 mph - N/A   Clear
6:55 AM 19.4 °F - 8.6 °F 63% 30.09 in 10.0 mi Calm Calm - N/A   Clear
7:15 AM 17.6 °F - 8.6 °F 68% 30.10 in 10.0 mi Calm Calm - N/A   Clear
7:35 AM 19.4 °F - 8.6 °F 63% 30.11 in 10.0 mi Calm Calm - N/A   Clear
7:55 AM 21.2 °F - 8.6 °F 58% 30.12 in 10.0 mi Calm Calm - N/A   Clear
8:15 AM 23.0 °F - 8.6 °F 54% 30.13 in 10.0 mi Calm Calm - N/A   Clear
8:35 AM 24.8 °F 19.1 °F 10.4 °F 54% 30.14 in 10.0 mi West 4.6 mph - N/A   Clear
8:55 AM 26.6 °F 20.0 °F 10.4 °F 51% 30.15 in 10.0 mi WNW 5.8 mph - N/A   Clear
9:15 AM 28.4 °F 19.7 °F 10.4 °F 47% 30.16 in 10.0 mi WNW 9.2 mph - N/A   Clear
9:35 AM 30.2 °F 23.4 °F 10.4 °F 44% 30.16 in 10.0 mi NNW 6.9 mph - N/A   Partly Cloudy
9:55 AM 30.2 °F 23.4 °F 10.4 °F 44% 30.17 in 10.0 mi NNW 6.9 mph - N/A   Mostly Cloudy
10:15 AM 32.0 °F 24.8 °F 10.4 °F 41% 30.17 in 10.0 mi NNW 8.1 mph - N/A   Partly Cloudy
10:35 AM 33.8 °F 28.6 °F 12.2 °F 41% 30.18 in 10.0 mi North 5.8 mph - N/A   Clear
10:55 AM 33.8 °F 27.0 °F 14.0 °F 44% 30.17 in 10.0 mi North 8.1 mph - N/A   Clear
11:15 AM 35.6 °F 30.7 °F 15.8 °F 44% 30.16 in 10.0 mi North 5.8 mph - N/A   Clear
11:35 AM 37.4 °F 30.3 °F 15.8 °F 41% 30.16 in 10.0 mi North 10.4 mph - N/A   Clear
11:55 AM 37.4 °F 30.3 °F 17.6 °F 45% 30.15 in 10.0 mi NNW 10.4 mph - N/A   Partly Cloudy
12:15 PM 39.2 °F 32.5 °F 19.4 °F 45% 30.13 in 10.0 mi NNW 10.4 mph 19.6 mph N/A   Clear
12:35 PM 37.4 °F 30.3 °F 17.6 °F 45% 30.12 in 10.0 mi NNW 10.4 mph - N/A   Clear
12:55 PM 39.2 °F 33.0 °F 17.6 °F 42% 30.11 in 10.0 mi North 9.2 mph - N/A   Clear
1:15 PM 39.2 °F 35.0 °F 17.6 °F 42% 30.10 in 10.0 mi NW 5.8 mph - N/A   Clear
1:35 PM 41.0 °F 34.3 °F 19.4 °F 42% 30.09 in 10.0 mi NW 11.5 mph 19.6 mph N/A   Clear
1:55 PM 41.0 °F 32.8 °F 17.6 °F 39% 30.09 in 10.0 mi NW 16.1 mph - N/A   Clear
2:15 PM 41.0 °F 33.9 °F 17.6 °F 39% 30.09 in 10.0 mi NNW 12.7 mph 19.6 mph N/A   Clear
2:35 PM 41.0 °F 33.5 °F 17.6 °F 39% 30.10 in 10.0 mi NW 13.8 mph 21.9 mph N/A   Clear
2:55 PM 42.8 °F 38.0 °F 17.6 °F 36% 30.09 in 10.0 mi NNW 8.1 mph - N/A   Clear
3:15 PM 42.8 °F 34.8 °F 17.6 °F 36% 30.10 in 10.0 mi NW 17.3 mph - N/A   Clear
3:35 PM 39.2 °F 32.5 °F 15.8 °F 39% 30.10 in 10.0 mi NNW 10.4 mph - N/A   Clear
3:55 PM 39.2 °F 32.5 °F 15.8 °F 39% 30.10 in 10.0 mi NW 10.4 mph 18.4 mph N/A   Clear
4:15 PM 39.2 °F 32.5 °F 15.8 °F 39% 30.12 in 10.0 mi NNW 10.4 mph - N/A   Clear
4:35 PM 37.4 °F 29.3 °F 15.8 °F 41% 30.12 in 10.0 mi North 12.7 mph - N/A   Clear
4:55 PM 37.4 °F 31.4 °F 15.8 °F 41% 30.13 in 10.0 mi North 8.1 mph - N/A   Clear
5:15 PM 35.6 °F 28.6 °F 15.8 °F 44% 30.14 in 10.0 mi NNW 9.2 mph - N/A   Clear
5:35 PM 35.6 °F 29.9 °F 15.8 °F 44% 30.14 in 10.0 mi North 6.9 mph - N/A   Clear
5:55 PM 35.6 °F 31.7 °F 15.8 °F 44% 30.15 in 10.0 mi North 4.6 mph - N/A   Clear
6:15 PM 33.8 °F 27.7 °F 15.8 °F 48% 30.16 in 10.0 mi North 6.9 mph - N/A   Partly Cloudy
6:35 PM 35.6 °F 27.1 °F 12.2 °F 38% 30.16 in 10.0 mi North 12.7 mph - N/A   Mostly Cloudy
6:55 PM 33.8 °F 25.8 °F 10.4 °F 38% 30.17 in 10.0 mi North 10.4 mph - N/A   Mostly Cloudy
7:15 PM 33.8 °F 27.0 °F 10.4 °F 38% 30.19 in 10.0 mi North 8.1 mph - N/A   Mostly Cloudy
7:35 PM 32.0 °F 26.4 °F 10.4 °F 41% 30.20 in 10.0 mi NNE 5.8 mph - N/A   Partly Cloudy
7:55 PM 32.0 °F 26.4 °F 8.6 °F 38% 30.20 in 10.0 mi NNE 5.8 mph - N/A   Clear
8:15 PM 30.2 °F 25.4 °F 10.4 °F 44% 30.20 in 10.0 mi NNE 4.6 mph - N/A   Clear
8:35 PM 32.0 °F 28.7 °F 10.4 °F 41% 30.20 in 10.0 mi NNE 3.5 mph - N/A   Clear
8:55 PM 32.0 °F 28.7 °F 10.4 °F 41% 30.22 in 10.0 mi NNE 3.5 mph - N/A   Clear
9:15 PM 32.0 °F - 10.4 °F 41% 30.22 in 10.0 mi Calm Calm - N/A   Scattered Clouds
9:35 PM 30.2 °F - 12.2 °F 47% 30.23 in 10.0 mi Calm Calm - N/A   Mostly Cloudy
9:55 PM 30.2 °F - 12.2 °F 47% 30.23 in 10.0 mi Calm Calm - N/A   Partly Cloudy
10:15 PM 28.4 °F - 12.2 °F 51% 30.24 in 10.0 mi Calm Calm - N/A   Clear
10:35 PM 28.4 °F 24.6 °F 12.2 °F 51% 30.23 in 10.0 mi NNW 3.5 mph - N/A   Clear
10:55 PM 28.4 °F - 14.0 °F 55% 30.24 in 10.0 mi Calm Calm - N/A   Clear
11:15 PM 26.6 °F 22.6 °F 14.0 °F 59% 30.25 in 10.0 mi NNW 3.5 mph - N/A   Clear
11:35 PM 28.4 °F 23.3 °F 12.2 °F 51% 30.25 in 10.0 mi NNW 4.6 mph - N/A   Mostly Cloudy
11:55 PM 30.2 °F 20.8 °F 10.4 °F 44% 30.26 in 10.0 mi North 11.5 mph - N/A   Mostly Cloudy